Regional Weather Roundup
Issued by NWS

Home | Current Version | Previous Version | Graphics & Text | Print | Product List | Glossary On
Versions: 1 2 3 4 5 6 7 8 9 10 11 12 13 14 15 16 17 18 19 20 21 22 23 24 25 26 27 28 29 30 31 32 33 34 35 36 37 38 39 40 41 42 43 44 45 46 47 48 49 50
687
ASUS44 KLIX 231910
RWRLA
LOUISIANA WEATHER ROUNDUP
NATIONAL WEATHER SERVICE NEW ORLEANS LA
200 PM CDT WED JUL 23 2014

NOTE: "FAIR" INDICATES FEW OR NO CLOUDS BELOW 12,000 FEET WITH NO
      SIGNIFICANT WEATHER AND/OR OBSTRUCTIONS TO VISIBILITY.
      SKY/WX - SKY CONDITION AND SIGNIFICANT WEATHER.
      TMP - AIR TEMPERATURE.    DP   - DEWPOINT TEMPERATURE.
      RH  - RELATIVE HUMIDITY.  PRES - PRESSURE.
      HX  - HEAT INDEX.         WCI  - WIND CHILL INDEX.

*  THESE STATIONS ARE NOT NWS OR FAA STATIONS AND ARE NOT UNDER
   NWS QUALITY CONTROL.

LAZ040-048-061>063-065-066-069-232000-
SOUTHEAST LOUISIANA

CITY           SKY/WX    TMP DP  RH WIND       PRES   REMARKS
N.O. AUDUBON     N/A     82  71  69 MISG        N/A
N.O. INTL ARPT PTSUNNY   82  73  74 SE10      30.05F
N.O. LAKEFRONT PTSUNNY   82  71  69 SE12      30.06F
N.O. DOWNTOWN* FAIR      81  70  69 SE8       30.06F
SLIDELL        PTSUNNY   83  72  69 S8        30.05F
BATON ROUGE    PTSUNNY   89  72  56 NE6       30.03F HX  96
BOOTHVILLE       N/A     80  72  76 SE6       30.05F
BELLE CHASSE   LGT RAIN  78  71  79 E5        30.05F
BOGALUSA*        N/A     82  68  62 S12G22    30.08R
GALLIANO*      NOT AVBL
NEW ROADS*     FAIR      87  72  61 N7        30.04F
GONZALES*      MOCLDY    87  74  66 SE7       30.02F HX  95
HAMMOND*       PTSUNNY   84  72  65 SE10      30.05F
HOUMA*         PTSUNNY   81  72  74 SE7       30.05F
PORT FOURCHON* PTCLDY    77  73  88 VRB5      30.07F FOG

$$

LAZ041-044-053-054-232000-
SOUTHWEST LOUISIANA

CITY           SKY/WX    TMP DP  RH WIND       PRES   REMARKS
LAKE CHARLES   MOSUNNY   91  72  53 N6        30.03F HX  98
LAFAYETTE      PTSUNNY   90  73  57 VRB5      30.03F HX  98
PATTERSON      PTSUNNY   75  70  83 W3        30.08S
SALT POINT       N/A     79  73  82 CALM      30.03F
NEW IBERIA     MOSUNNY   90  72  55 NE10      30.03F HX  97
CHENAULT AIRPK NOT AVBL

$$

LAZ027-028-232000-
CENTRAL LOUISIANA

CITY           SKY/WX    TMP DP  RH WIND       PRES   REMARKS
FORT POLK      MOSUNNY   89  70  53 CALM      30.05F
ALEXANDRIA INT LGT RAIN  89  72  56 CALM      30.02F HX  96
ALEXANDRIA     MOSUNNY   92  72  51 E8        30.04F HX  99

$$

LAZ001-002-232000-
NORTHWEST LOUISIANA

CITY           SKY/WX    TMP DP  RH WIND       PRES   REMARKS
SHREVEPORT     PTSUNNY   92  69  47 CALM      30.05F HX  97
BARKSDALE AFB  MOSUNNY   90  71  53 NE6       30.05F HX  96
DTN SHREVEPORT SUNNY     91  68  46 CALM      30.05F HX  95

$$

LAZ014-016-232000-
NORTHEAST LOUISIANA

CITY           SKY/WX    TMP DP  RH WIND       PRES   REMARKS
MONROE         PTSUNNY   90  71  53 VRB3      30.04F HX  96
TALLULAH       CLOUDY    87  74  64 CALM      30.04F HX  95

$$




USA.gov is the U.S. government's official web portal to all federal, state and local government web resources and services.